Regional Weather Roundup
Issued by NWS Little Rock, AR

Home | Current Version | Previous Version | Graphics & Text | Print | Product List | Glossary On
Versions: 1 2 3 4 5 6 7 8 9 10 11 12 13 14 15 16 17 18 19 20 21 22 23 24 25 26 27 28 29 30 31 32 33 34 35 36 37 38 39 40 41 42 43 44 45 46 47 48 49 50
855
ASUS44 KLZK 262205
RWRLZK

WEATHER ROUNDUP FOR ARKANSAS
NATIONAL WEATHER SERVICE LITTLE ROCK AR
500 PM CDT MON SEP 26 2016

NOTE: "FAIR" INDICATES FEW OR NO CLOUDS BELOW 12,000 FEET WITH NO
SIGNIFICANT WEATHER AND/OR OBSTRUCTIONS TO VISIBILITY.

ARZ001-003-010-029-262300-
NORTHWEST ARKANSAS

CITY           SKY/WX    TMP DP  RH WIND       PRES   REMARKS
FAYETTEVILLE   SUNNY     72  45  37 NE6       30.15F
FORT SMITH     SUNNY     80  43  26 N9        30.10F
HARRISON       SUNNY     73  44  35 N6        30.15F
BENTONVILLE    SUNNY     72  39  30 N10       30.17F
ROGERS         SUNNY     70  44  39 N7        30.17F
SILOAM SPGS    SUNNY     72  39  30 N7        30.17F
HIGHFILL       SUNNY     73  44  35 N7        30.17F
SPRINGDALE     SUNNY     72  43  35 N10       30.18F
$$

ARZ004-005-016-262300-
NORTH CENTRAL ARKANSAS

CITY           SKY/WX    TMP DP  RH WIND       PRES   REMARKS
BATESVILLE     MOSUNNY   73  54  49 W5        30.10F
FLIPPIN        SUNNY     75  43  31 N8        30.11F
MTN HOME       SUNNY     74  45  35 VRB6      30.12F
$$

ARZ040-041-262300-
WEST CENTRAL ARKANSAS

CITY           SKY/WX    TMP DP  RH WIND       PRES   REMARKS
MENA           MOSUNNY  N/A N/A N/A E5        30.13F
MOUNT IDA      CLOUDY    70  53  54 CALM      30.10F
$$

ARZ009-017-025-026-028-262300-
NORTHEAST ARKANSAS

CITY           SKY/WX    TMP DP  RH WIND       PRES   REMARKS
CORNING          N/A     75  52  43 N9        30.09F
JONESBORO      MOSUNNY   73  52  47 N7        30.09F
NEWPORT        MOSUNNY   72  53  51 N8        30.10F HAZE
WALNUT RIDGE   SUNNY     75  52  43 N10       30.09F
BLYTHEVILLE    MOSUNNY   73  54  51 E5        30.08F
NW BLYTHEVILLE CLOUDY    70  50  49 N9G18     30.09F
$$

ARZ022-023-033-042-044-262300-
CENTRAL ARKANSAS

CITY           SKY/WX    TMP DP  RH WIND       PRES   REMARKS
LITTLE ROCK    MOSUNNY   76  50  40 NE9       30.10F
N LITTLE ROCK    N/A     72  54  53 NE6       30.08F
JACKSONVILLE   SUNNY     73  54  50 NE6       30.10F
SEARCY         CLOUDY    75  54  47 N6        30.11F
HOT SPRINGS    CLOUDY    72  51  47 NE7       30.10F
RUSSELLVILLE   SUNNY     74  53  48 VRB5      30.10F
$$

ARZ036-262300-
EAST ARKANSAS

CITY           SKY/WX    TMP DP  RH WIND       PRES   REMARKS
WEST MEMPHIS   CLOUDY    72  53  51 N15       30.06F
$$

ARZ050-053-066-070-073-262300-
SOUTHWEST ARKANSAS

CITY           SKY/WX    TMP DP  RH WIND       PRES   REMARKS
ARKADELPHIA    FAIR      73  56  54 N8        30.09F
TEXARKANA      MOSUNNY   74  56  53 NE8       30.08F
EL DORADO      CLOUDY    75  61  61 N7        30.06F
DE QUEEN       CLOUDY    70  57  63 N5        30.09F
$$

ARZ056-057-069-262300-
SOUTHEAST ARKANSAS

CITY           SKY/WX    TMP DP  RH WIND       PRES   REMARKS
PINE BLUFF     PTSUNNY   73  54  51 N10       30.07F
STUTTGART      SUNNY     73  52  46 N14       30.09F
MONTICELLO     CLOUDY    76  60  57 VRB3      30.05F

$$






USA.gov is the U.S. government's official web portal to all federal, state and local government web resources and services.